Location: Payette
(44.0782°N, 116.9338°W)
Time: 18:31:11
(UTC-06:00)

N. Korean satellite - Visible Passes

Search period start: 21 March 2019 00:00
Search period end: 31 March 2019 00:00
Orbit: 456 x 510 km, 97.2° (Epoch: 20 March)

Date Brightness Start Highest point End Pass type
(mag) Time Alt. Az. Time Alt. Az. Time Alt. Az.
21 Mar 10.0 06:58:58 10° ENE 07:00:46 13° E 07:02:35 10° ESE visible
25 Mar 10.2 06:53:31 10° ENE 06:54:51 12° E 06:56:12 10° ESE visible
29 Mar 10.6 06:48:32 10° E 06:48:53 10° E 06:49:16 10° E visible
